Location: Garrison
(47.6536°N, 101.4238°W)
Time: 20:18:56
(UTC+00:00)

ISS - Visible Passes

Search period start: 29 November 2020 00:00
Search period end: 09 December 2020 00:00
Orbit: 418 x 420 km, 51.6° (Epoch: 30 November)

Date Brightness Start Highest point End Pass type
(mag) Time Alt. Az. Time Alt. Az. Time Alt. Az.
29 Nov -2.9 00:58:44 10° WNW 01:01:42 39° NNW 01:01:42 39° NNW visible
30 Nov -3.0 00:11:04 10° WNW 00:14:18 41° N 00:16:03 22° NE visible
30 Nov -0.9 01:48:10 10° WNW 01:49:00 16° WNW 01:49:00 16° WNW visible
01 Dec -2.9 01:00:36 10° WNW 01:03:22 41° NNW 01:03:22 41° NNW visible
02 Dec -3.1 00:12:59 10° WNW 00:16:13 41° N 00:17:45 24° ENE visible
02 Dec -0.9 01:49:52 10° WNW 01:50:43 17° WNW 01:50:43 17° WNW visible
03 Dec -3.3 01:02:18 10° WNW 01:05:09 56° NNW 01:05:09 56° NNW visible
04 Dec -3.5 00:14:44 10° WNW 00:18:03 53° NNE 00:19:40 26° E visible
04 Dec -0.9 01:51:37 10° WNW 01:52:38 18° W 01:52:38 18° W visible
04 Dec -3.3 23:27:07 10° WNW 23:30:23 45° N 23:33:38 10° E visible
05 Dec -3.4 01:03:58 10° WNW 01:07:15 62° SW 01:07:15 62° SW visible
06 Dec -3.8 00:16:21 10° WNW 00:19:43 89° SW 00:22:00 19° ESE visible
06 Dec -0.7 01:53:47 10° W 01:54:59 15° WSW 01:54:59 15° WSW visible
06 Dec -3.7 23:28:44 10° WNW 23:32:06 68° NNE 23:35:27 10° ESE visible
07 Dec -1.8 01:05:48 10° W 01:08:43 27° SW 01:09:56 21° S visible
08 Dec -2.5 00:18:00 10° WNW 00:21:13 41° SSW 00:24:24 10° SE visible
08 Dec -3.2 23:30:19 10° WNW 23:33:39 63° SSW 23:36:59 10° SE visible
